User: anonymous
Location: Wawayanda State Park
(41.1833°N, 74.4333°W)
Time: 18:32:13
(UTC-04:00)
Language:

RESURS DK-1 - Orbit

View from above orbital plane
View from above orbital plane
View from above satellite
View from above satellite

Ground track
Ground track

The orbit data is extracted from the following two-line orbital elements,

1 29228U 06021A   14209.52733693  .00000119  00000-0  16979-4 0   792
2 29228 069.9371 259.2050 0004662 194.8055 307.0724 15.00731956449774
Epoch (UTC): 28 July 2014 12:39:21
Eccentricity: 0.0004662
inclination: 69.9371°
perigee height: 561 km
apogee height: 568 km
right ascension of ascending node: 259.2050°
argument of perigee: 194.8055°
revolutions per day: 15.00731956
mean anomaly at epoch: 307.0724°
orbit number at epoch: 44977

The dashed part of the orbit path shows where the satellite is in the earth's shadow,  

DLR